EHI
5 5 4 4 4 5 9 10 9 8 7 5 1 1 2 3 2 2 8 17 20 16 14 13 13 14 14 13 12 11 9 8 6 5 3 2 1 0 0 0 0 0 0
10 9 9 9 8 8 10 11 9 7 7 6 3 2 2 3 3 4 8 16 20 18 18 16 16 17 16 13 11 10 9 9 7 6 4 3 1 0 0 0 0 0 0
16 14 13 13 12 11 13 14 11 7 6 6 6 5 4 6 7 7 9 14 16 16 17 19 21 21 19 13 9 8 9 10 9 8 6 4 2 1 0 0 0 0 0
16 15 14 13 12 12 14 14 12 9 7 7 9 9 9 10 12 11 11 13 14 12 12 17 22 24 21 13 7 7 9 11 11 10 8 6 4 1 0 0 0 0 0
16 15 15 15 13 12 12 10 10 11 11 9 9 11 13 15 16 14 12 12 14 13 12 13 18 20 18 14 10 9 11 12 12 12 11 9 6 4 2 0 0 0 0
17 18 19 20 17 14 12 10 10 14 16 14 11 11 15 18 19 17 13 12 13 14 16 17 19 17 15 16 16 15 15 14 14 14 12 11 9 6 4 2 0 0 0
15 18 19 20 21 19 17 14 13 16 19 19 15 12 12 14 17 17 14 12 11 12 16 22 25 23 18 16 15 16 18 18 17 15 12 11 10 7 5 3 1 0 0
15 15 16 17 18 20 20 18 17 19 20 20 18 13 9 9 9 10 12 13 11 12 14 19 28 32 27 19 13 12 16 19 18 16 13 11 9 5 2 1 0 0 0
17 16 16 17 17 19 21 21 21 22 20 18 17 14 12 10 6 5 8 12 14 15 14 14 22 33 33 26 20 16 16 17 17 16 14 12 8 4 1 0 0 0 0
20 20 21 23 22 21 21 21 23 23 18 14 15 16 16 15 10 6 6 10 15 17 15 13 18 27 32 32 30 26 19 15 15 14 12 10 7 4 1 0 0 0 0
24 23 25 29 28 23 20 22 24 23 16 12 13 17 19 19 16 11 8 8 11 15 17 18 21 25 29 34 34 28 19 13 10 10 8 7 5 3 2 1 1 0 0
30 27 28 32 31 26 23 24 25 23 19 15 14 16 20 20 17 14 12 10 11 14 19 24 27 26 27 30 29 22 17 11 6 4 4 4 3 3 3 2 1 0 0
33 34 35 38 35 28 25 26 25 22 21 19 17 18 20 19 16 14 13 13 13 15 19 24 27 26 24 24 21 16 13 8 3 1 2 2 2 2 3 2 1 0 0
32 37 43 43 38 30 26 25 24 21 21 20 19 20 21 17 15 15 16 14 13 13 16 20 24 25 25 21 15 12 10 6 2 0 0 1 1 1 1 1 1 0 0
32 38 45 43 38 30 24 23 23 22 22 20 20 22 22 18 16 19 20 18 16 12 12 17 22 25 25 19 13 12 11 6 2 0 0 0 0 0 0 0 0 0 0
36 42 46 43 38 32 26 23 24 24 24 22 20 22 23 21 21 23 23 22 21 16 12 15 21 23 22 16 13 15 14 9 3 0 0 0 0 0 0 0 0 0 0
43 45 45 42 39 36 32 30 27 25 26 25 23 23 25 26 25 24 22 22 22 19 15 16 20 23 23 18 15 16 14 10 5 1 0 0 0 0 0 0 0 0 0
50 49 46 41 37 35 36 36 31 27 27 29 29 27 27 27 27 24 21 20 19 17 16 17 21 24 22 18 16 14 12 10 6 2 0 0 0 0 0 0 0 0 0
55 53 49 42 35 32 34 36 34 28 27 30 31 30 27 27 26 24 22 21 19 15 16 17 19 22 20 17 15 14 12 10 7 4 1 0 0 0 0 0 0 0 0
53 53 50 44 36 30 30 33 34 30 28 29 29 27 26 25 24 22 22 22 20 17 18 17 16 19 19 17 15 13 11 10 8 6 4 2 1 0 0 0 0 0 0
47 49 48 43 36 28 25 28 30 30 31 31 29 26 24 22 20 17 17 19 19 18 19 16 14 15 16 15 14 12 10 9 8 8 7 4 2 0 0 0 0 0 0
45 46 45 41 36 27 19 18 23 28 31 33 30 26 22 19 19 16 13 12 12 13 14 13 13 13 14 14 13 11 9 7 7 8 7 4 2 1 1 1 0 0 0
45 44 42 41 37 27 15 11 16 24 29 31 30 27 23 20 21 21 16 10 9 8 8 10 12 14 15 15 15 12 8 6 7 7 5 3 3 2 2 1 0 0 0
44 43 41 40 38 28 15 8 11 19 25 27 28 29 27 23 20 22 21 16 13 10 7 8 11 13 14 14 14 12 9 7 7 6 5 4 4 4 3 2 0 0 0
38 38 37 36 34 27 15 6 8 16 22 24 27 29 28 22 15 16 20 22 21 17 10 6 7 8 8 9 11 11 9 7 6 6 6 5 5 4 3 2 0 0 0
32 32 32 33 31 25 15 6 6 15 21 24 28 29 23 17 11 11 19 25 25 20 13 7 5 4 4 5 7 8 8 7 5 6 6 7 6 4 2 1 1 0 0
Wind_Speed
2 2 2 2 2 2 3 2 2 2 2 3 3 3 2 2 2 3 5 11 12 11 12 12 11 11 11 11 11 11 10 10 10 9 9 9 8 8 8 8 8 8 8
2 1 1 1 2 2 2 2 3 2 2 2 3 3 3 3 2 3 4 7 12 12 12 13 12 12 12 12 12 11 11 11 11 10 10 9 9 9 9 9 9 9 9
3 2 2 2 2 2 2 2 3 2 3 3 3 4 3 3 3 3 4 4 6 11 13 13 13 13 13 13 13 12 12 11 11 11 11 11 11 10 10 10 10 10 10
4 3 3 2 2 3 2 2 2 2 2 2 2 3 3 2 3 4 4 5 5 6 10 14 14 14 14 14 14 13 13 12 12 12 12 12 12 11 11 11 11 11 11
5 4 3 2 3 2 2 3 2 2 2 3 3 4 3 3 4 5 5 4 4 5 5 10 15 14 15 15 15 14 14 13 13 13 13 13 13 13 12 12 12 12 12
4 4 3 3 3 2 2 2 2 2 2 3 4 3 3 4 4 3 3 3 4 5 6 7 7 10 15 14 13 13 13 13 12 13 14 14 14 13 13 13 13 13 13
4 3 2 3 3 3 3 3 2 3 3 2 2 2 3 4 3 3 3 2 3 3 3 4 5 4 6 11 10 10 11 12 12 11 11 12 13 13 12 13 13 14 13
4 4 3 2 3 2 3 3 2 2 2 2 1 1 2 2 2 3 3 3 3 2 2 4 4 4 3 3 5 9 9 9 10 10 10 10 10 10 11 11 11 12 13
5 3 4 3 2 2 2 3 3 3 3 2 1 1 1 1 1 1 2 2 2 2 2 2 3 4 4 3 4 6 8 7 8 9 9 8 8 8 8 9 9 9 10
5 4 4 3 2 2 2 4 3 3 3 3 2 2 2 1 1 1 1 1 2 2 2 2 2 3 3 3 3 4 6 6 5 6 6 6 6 6 6 7 8 8 8
5 4 4 3 3 3 3 2 2 3 2 3 2 2 2 2 3 2 2 1 1 1 2 2 2 2 3 3 3 4 6 5 4 4 3 3 3 4 4 5 6 6 6
4 5 4 4 3 3 3 3 2 3 3 3 3 2 2 2 2 2 2 2 2 2 2 2 2 2 3 3 4 6 6 6 5 3 2 2 2 2 2 2 3 3 4
4 5 5 4 4 4 3 3 3 3 4 4 3 3 3 3 2 2 1 2 1 1 1 1 2 2 2 4 4 7 6 6 5 4 3 3 2 2 2 1 1 1 1
3 4 5 5 5 4 4 3 3 4 3 4 5 4 3 3 2 2 2 1 1 1 2 2 1 2 2 3 5 7 5 6 6 5 4 4 4 3 2 2 2 1 1
4 4 5 5 4 4 4 3 3 4 3 3 4 3 3 3 3 2 2 1 2 2 2 2 2 2 2 3 6 4 4 6 6 6 5 5 4 3 3 2 2 1 1
3 3 4 4 4 5 5 4 3 3 4 4 3 3 3 3 3 2 2 2 2 2 2 1 2 3 3 4 6 4 5 8 7 7 6 5 5 4 3 2 2 1 1
4 4 4 4 4 4 4 4 4 4 4 4 4 4 4 3 3 3 2 2 2 2 2 2 1 2 3 3 4 4 5 5 5 8 8 7 6 5 4 3 3 2 1
4 4 4 4 4 4 4 4 4 4 4 4 4 4 4 4 4 3 3 3 2 2 2 2 2 2 2 3 4 5 5 6 5 9 10 9 7 6 5 4 4 3 2
4 4 4 4 4 4 4 4 4 4 4 4 3 4 4 4 4 3 3 3 2 3 2 3 3 2 2 3 4 4 4 3 5 7 9 9 8 7 6 6 5 4 3
4 4 4 4 4 4 3 3 4 4 4 4 4 4 4 4 4 4 4 3 3 3 3 3 3 3 2 3 3 3 3 3 3 5 5 7 7 8 7 7 6 6 5
5 4 4 4 4 4 4 3 4 5 4 4 4 3 4 3 4 3 3 3 3 3 3 3 3 2 2 2 3 3 3 3 2 3 4 5 5 4 5 7 7 7 6
4 4 5 4 5 5 3 4 3 4 3 4 4 3 3 4 4 5 3 2 3 4 4 3 3 3 3 3 3 3 2 3 3 3 3 4 5 5 5 5 8 9 9
4 4 4 4 4 4 4 4 4 3 4 4 4 3 4 4 3 3 4 4 3 4 5 4 4 4 3 3 3 4 3 3 3 3 3 3 3 4 4 5 11 11 10
3 3 4 4 4 4 5 5 4 5 5 5 4 4 4 3 3 2 3 4 4 4 5 5 4 3 3 3 4 4 4 3 3 2 3 3 3 3 3 3 9 11 11
3 3 3 3 4 4 5 5 4 4 4 5 5 5 5 4 4 4 4 4 3 3 4 4 4 4 4 4 4 2 3 3 3 3 2 2 2 2 2 3 5 10 10
3 3 3 3 3 3 5 6 5 4 4 3 3 3 4 4 4 5 4 4 4 4 3 3 3 4 4 5 6 5 4 4 3 2 3 3 2 2 2 2 4 5 6
Wind_Direction
160 156 168 182 192 186 183 198 205 206 217 229 235 233 244 255 215 163 158 177 181 188 194 199 203 208 210 209 208 209 210 210 208 211 214 218 219 222 224 224 224 223 223
150 153 166 206 209 204 189 197 210 207 224 235 240 239 242 242 231 180 170 185 194 197 201 205 209 212 213 213 214 214 214 215 213 212 214 218 222 226 228 228 227 226 226
159 183 197 213 201 210 197 200 211 209 221 220 231 240 241 237 228 215 193 185 196 206 208 209 210 211 214 217 219 219 219 219 216 215 216 218 222 225 228 230 230 228 226
178 197 208 209 195 205 204 202 206 211 234 232 225 239 233 224 231 226 218 202 195 202 209 213 212 211 214 219 222 223 223 221 219 218 218 220 223 225 226 230 232 231 229
187 203 205 195 208 218 220 225 177 209 228 236 235 227 230 221 222 234 229 223 210 199 197 207 210 212 218 222 224 225 226 225 224 222 223 225 226 226 227 230 232 233 233
194 211 203 196 207 218 228 222 216 222 236 240 258 244 229 225 212 226 229 228 226 213 203 200 199 213 220 224 225 226 227 228 227 226 227 229 229 229 228 229 231 233 234
196 206 244 192 204 210 220 218 230 236 244 242 262 281 259 237 212 211 209 216 218 218 198 179 185 197 206 214 222 226 227 230 230 229 230 231 233 232 230 231 232 234 235
197 204 213 224 215 209 219 221 219 253 261 236 226 275 283 290 266 226 199 204 207 200 198 192 180 183 186 175 196 214 223 229 231 232 233 234 234 233 233 234 234 234 236
194 209 194 217 224 215 210 222 220 226 249 262 231 216 231 252 279 269 222 192 186 185 201 189 182 177 182 177 178 198 211 222 230 233 232 233 233 233 233 233 234 235 236
197 200 204 209 221 232 208 222 210 233 240 260 256 231 223 230 251 298 305 236 197 198 200 214 196 167 172 165 152 152 180 197 216 224 229 230 226 224 228 232 235 238 242
199 205 200 199 208 231 231 226 208 231 242 248 257 245 237 235 231 223 251 251 251 217 191 190 196 183 170 156 139 143 157 169 183 198 212 228 227 223 222 228 236 242 247
195 205 201 192 206 226 235 230 225 228 240 255 267 262 232 228 234 229 234 229 222 240 210 185 185 175 158 139 141 144 149 153 156 161 169 182 191 195 201 214 230 240 246
196 199 200 188 207 217 225 228 225 236 234 240 247 257 258 251 249 237 230 243 225 237 221 211 180 158 157 130 131 139 144 148 148 147 143 138 135 137 139 142 154 235 266
206 183 185 189 206 218 226 218 230 232 232 235 245 245 258 264 259 238 227 233 250 242 226 223 189 167 144 133 143 153 142 147 146 143 139 133 128 124 117 111 104 90 43
214 188 190 197 205 215 226 222 228 231 228 231 244 244 248 259 259 250 239 220 231 252 245 217 193 156 142 131 146 151 145 149 150 150 151 149 141 133 123 119 117 106 91
217 190 194 201 209 217 222 225 239 231 226 231 233 239 243 252 265 257 237 228 228 231 250 238 210 166 169 164 163 158 148 152 157 159 161 157 151 146 141 136 128 123 116
213 203 203 207 214 217 220 222 234 232 228 235 240 232 233 246 254 264 258 244 238 217 233 248 245 171 163 154 158 157 159 166 165 172 170 166 163 161 159 154 147 141 127
210 203 204 212 220 220 222 222 237 239 234 234 235 235 235 234 234 254 258 245 238 219 212 235 233 200 192 178 170 187 183 181 173 180 179 176 171 169 170 170 163 156 143
202 203 199 210 220 224 222 224 235 244 241 241 241 240 240 236 231 231 240 245 240 236 208 216 234 214 200 194 187 210 202 187 183 175 180 181 177 176 180 179 177 171 163
199 198 204 211 217 225 224 228 239 243 243 245 245 242 242 237 232 234 239 244 250 254 233 220 228 220 208 200 196 203 210 203 198 184 173 174 179 183 188 187 186 182 178
204 196 202 211 217 222 221 221 240 241 243 247 248 246 243 231 224 227 237 229 236 245 247 232 226 225 214 200 210 215 214 207 199 181 169 177 177 188 195 199 197 192 186
206 199 204 213 220 225 202 206 221 248 244 242 247 250 250 228 222 213 218 220 223 236 250 247 235 220 215 212 216 226 219 211 214 187 182 195 180 190 192 193 191 189 189
206 210 212 211 218 214 206 202 214 242 246 241 239 239 252 248 221 214 217 223 240 248 247 249 255 245 221 211 214 225 222 224 226 190 182 209 188 196 192 186 179 184 187
214 216 222 216 221 215 204 208 220 236 246 243 236 229 233 249 243 217 229 226 230 243 245 238 247 253 236 215 209 218 226 228 223 200 171 205 199 198 179 162 175 182 186
219 224 226 224 233 220 198 202 210 246 244 243 236 231 222 220 210 209 219 225 237 243 242 230 236 246 245 231 216 217 224 215 219 210 189 190 195 176 164 171 184 189 189
219 229 234 236 241 234 205 200 202 242 249 245 236 228 218 208 202 203 219 224 231 241 248 238 236 248 241 224 213 211 214 219 221 209 185 179 191 174 185 180 174 184 196